Theta_e
277 276 275 275 275 276 277 278 280 283 284 288 297 297 295 293 293 296 303 310 315 315 315 313 311 311 312 313 313 312 312 313 311 303 303 302 304 307 306 307 308 307 305
276 274 274 273 275 274 276 278 279 279 283 285 286 296 295 294 292 294 298 302 312 315 314 313 311 310 311 312 313 313 313 313 312 299 298 299 301 301 303 301 302 300 299
275 274 272 272 273 273 273 273 275 277 279 281 284 290 294 292 292 291 293 301 311 314 313 311 311 309 310 309 311 312 312 311 310 301 297 299 299 299 298 301 300 299 299
274 273 272 271 271 271 272 273 274 275 278 278 280 284 290 292 292 291 292 296 304 313 313 312 311 309 309 308 309 310 310 307 306 301 298 297 298 298 300 301 301 302 303
272 271 271 270 270 271 270 271 272 275 278 277 278 280 282 289 291 291 291 294 299 312 313 313 311 310 309 309 307 307 307 303 301 298 296 296 295 296 298 298 298 299 300
271 271 270 270 270 269 270 271 271 275 277 277 277 279 282 285 289 291 291 292 299 310 312 312 312 310 308 309 308 308 308 303 299 298 297 296 294 296 297 296 295 295 296
270 269 269 269 269 269 270 270 271 272 274 277 277 279 281 284 286 291 291 292 296 308 311 311 311 309 307 306 306 307 308 308 308 300 296 297 294 295 295 295 295 296 297
269 269 269 268 268 268 269 269 270 271 273 277 278 278 281 287 290 292 291 293 295 304 310 310 309 307 305 304 302 303 305 305 303 302 303 299 298 296 295 296 295 294 294
269 268 267 267 267 267 267 268 269 270 272 274 278 279 282 286 291 291 291 293 297 306 309 309 309 306 306 304 302 300 300 300 302 303 305 304 301 299 296 295 294 293 290
267 266 266 265 265 266 267 268 269 269 271 273 279 280 283 285 289 290 292 294 299 306 306 307 308 306 305 305 303 300 298 298 300 299 298 298 299 297 296 296 295 294 292
265 264 263 264 265 267 270 270 270 270 272 274 280 281 285 288 289 290 293 295 302 305 305 304 306 306 306 305 304 302 301 298 300 300 299 298 297 296 295 295 296 296 293
263 262 263 264 268 269 271 273 275 273 274 278 281 282 284 286 288 291 293 296 303 304 304 303 305 303 306 305 305 303 302 301 299 299 298 296 295 294 294 295 296 296 297
260 261 264 267 267 269 270 273 278 277 278 283 285 287 288 291 293 295 296 299 304 302 302 302 302 302 303 303 304 303 302 299 298 299 298 297 296 296 296 296 294 294 295
260 262 264 266 267 268 269 271 274 278 284 288 288 292 292 294 295 296 298 300 302 303 302 301 301 301 299 301 301 300 300 299 298 298 298 297 296 294 294 293 292 292 293
261 263 264 265 266 267 268 269 271 274 278 283 290 291 292 293 295 297 299 300 300 301 299 298 298 298 297 298 298 298 297 297 296 297 297 295 294 293 292 291 292 290 292
261 262 263 264 265 265 266 267 268 271 274 276 278 279 285 291 293 297 299 300 300 300 298 298 298 298 298 297 296 297 296 296 296 295 295 294 293 291 292 290 291 290 291
260 262 262 263 264 264 265 266 266 266 268 271 273 273 279 287 291 296 298 300 299 298 298 298 298 298 298 297 297 297 296 296 296 295 295 293 293 292 292 290 291 290 291
260 261 261 261 262 262 263 264 264 264 265 265 268 269 271 275 277 285 295 299 297 298 298 298 298 297 298 297 297 297 297 296 296 295 295 294 293 292 292 291 291 290 290
259 260 260 260 261 261 261 262 262 262 263 263 266 266 264 269 270 270 272 272 279 277 279 295 297 297 297 297 297 297 297 296 296 295 295 294 294 293 293 292 291 291 291
258 259 259 259 260 260 260 260 261 260 261 261 262 265 262 263 263 263 264 265 267 268 269 271 274 283 292 296 296 296 296 295 295 295 295 295 294 293 293 293 292 291 291
257 258 258 258 259 259 259 259 259 259 259 259 259 263 263 261 261 261 261 262 263 265 267 268 269 271 274 282 292 295 295 295 295 295 294 294 294 293 293 293 292 291 291
256 256 257 257 257 258 258 257 257 258 258 258 258 258 260 258 259 259 259 260 260 262 263 265 268 268 269 270 274 282 290 292 292 293 293 293 292 291 291 291 290 290 289
256 256 256 256 256 256 257 257 257 256 257 256 257 257 257 257 257 257 258 258 259 260 261 263 264 267 269 269 271 273 275 279 284 289 289 289 289 289 289 289 288 287 287
255 255 255 255 255 255 255 256 256 256 255 255 255 255 255 255 255 256 256 257 259 259 260 262 263 265 267 268 269 272 274 277 281 283 285 286 285 285 285 285 285 285 285
256 255 254 254 254 254 254 255 255 255 255 255 254 255 254 255 255 255 256 257 258 260 261 262 263 264 265 266 268 270 272 275 276 278 279 280 280 280 280 280 280 280 280
255 255 254 254 254 253 253 253 253 254 254 254 254 254 254 254 254 254 255 257 257 259 260 262 263 263 264 264 266 267 270 271 273 273 274 274 273 273 274 274 274 274 274
Wind_Speed
36 36 38 38 39 35 36 38 34 33 36 35 29 28 21 26 26 26 37 23 41 39 43 48 45 43 37 38 37 38 37 31 13 7 18 31 35 35 32 30 31 32 31
39 40 34 41 35 41 36 34 31 34 32 33 32 27 25 22 21 25 29 32 34 47 42 44 47 45 38 34 36 37 37 37 28 17 20 26 33 34 33 33 31 29 30
43 38 38 36 35 36 38 42 38 35 31 36 31 28 22 19 17 20 25 34 32 42 48 44 46 46 42 35 37 39 37 36 33 26 18 28 27 37 35 32 31 30 29
42 40 40 38 37 36 34 38 39 36 31 33 34 30 27 23 19 24 24 28 29 38 47 47 48 47 47 41 38 38 38 37 36 31 24 29 30 36 37 38 30 31 34
43 41 39 40 39 37 37 35 39 37 28 32 36 34 35 28 22 22 21 27 33 38 38 47 49 49 53 50 43 39 39 35 35 29 23 24 25 30 32 29 28 36 34
41 40 42 40 40 38 36 34 37 36 31 30 34 34 32 33 27 25 25 27 35 40 40 46 48 54 54 56 54 50 50 43 33 26 24 26 29 38 34 36 33 29 12
40 41 39 41 38 38 37 35 34 35 34 29 34 33 32 34 37 32 28 30 36 35 44 43 44 46 51 54 54 52 50 50 56 46 39 40 38 43 42 38 41 40 26
39 39 37 41 41 39 37 35 34 32 31 32 33 31 32 32 31 30 28 31 32 36 44 46 46 42 48 50 47 47 48 53 52 48 52 45 42 46 47 46 42 29 13
36 40 40 40 41 40 37 36 33 32 30 31 32 31 31 36 28 25 27 27 30 36 43 44 48 47 52 56 51 43 41 42 49 53 53 50 49 47 53 34 33 30 9
41 42 43 42 40 39 39 37 34 31 32 31 31 31 30 29 25 27 30 28 27 31 39 43 52 51 55 62 55 46 38 39 45 40 40 41 46 43 55 59 51 34 21
42 43 43 41 42 39 38 35 33 30 28 29 28 29 28 27 27 28 34 30 29 32 33 34 42 54 59 61 56 55 52 45 49 48 43 42 42 47 55 55 53 52 37
43 42 42 42 38 37 35 35 28 27 26 27 22 25 29 29 31 33 35 32 31 34 34 37 40 50 62 64 58 52 49 54 44 39 37 35 38 42 46 51 54 55 53
42 40 42 40 39 36 34 32 27 20 21 19 17 16 19 24 27 31 29 32 40 35 35 38 38 46 55 56 57 51 50 43 39 36 34 36 43 47 51 52 48 49 44
38 38 39 39 40 36 32 28 26 23 19 16 14 9 17 17 19 21 23 33 39 42 37 37 43 47 47 45 41 44 42 41 42 40 36 34 34 39 46 45 39 44 37
37 36 37 36 36 37 31 29 27 23 25 25 13 15 11 8 16 19 23 27 28 34 32 30 27 31 30 29 32 35 36 34 30 30 33 34 35 32 34 37 35 35 33
34 34 36 36 35 34 34 33 28 28 28 31 32 29 22 19 18 20 24 30 30 33 29 23 23 26 27 29 30 30 34 35 35 36 34 34 35 34 34 33 32 34 35
33 33 34 34 33 33 32 30 13 44 32 33 36 35 35 26 16 21 21 29 34 39 22 21 22 25 26 31 32 32 31 35 37 36 37 36 34 34 37 34 35 34 33
31 29 31 32 32 32 31 29 28 24 16 33 37 33 34 34 36 20 12 26 25 27 19 19 19 22 25 27 29 29 28 31 33 33 34 37 37 37 34 34 35 34 33
30 31 32 30 30 31 31 29 29 28 27 28 31 38 41 28 34 42 37 28 16 17 16 5 12 19 21 26 28 29 30 31 34 34 34 35 38 37 35 36 37 40 36
29 31 31 29 31 32 31 30 29 29 27 29 32 35 38 38 40 35 35 31 28 25 24 23 22 17 2 19 27 29 28 30 32 33 34 35 34 37 35 37 38 37 37
26 27 29 28 29 30 30 30 29 29 28 29 31 40 40 34 31 32 32 33 30 29 28 27 28 29 22 14 8 22 24 24 28 30 31 31 31 32 34 32 30 32 33
26 26 26 26 27 29 30 30 30 29 31 30 31 35 40 37 35 33 33 33 31 31 31 31 31 34 32 28 23 15 9 13 20 24 25 25 26 28 27 22 23 24 23
27 26 25 25 25 26 28 29 29 30 30 31 32 34 37 36 35 36 35 34 34 35 35 38 38 36 38 36 32 27 22 17 10 13 19 20 20 22 23 21 21 19 20
27 25 23 24 25 25 24 25 26 28 29 30 32 33 33 33 32 33 34 33 35 38 41 42 42 43 38 40 38 31 27 21 17 12 13 16 15 16 17 17 17 17 19
25 26 25 24 23 23 24 24 25 26 27 27 28 28 29 31 33 34 35 35 38 41 41 42 41 42 42 42 41 37 30 25 23 19 17 17 18 17 17 17 17 16 16
21 22 24 25 25 25 23 23 23 23 24 25 25 25 25 28 30 32 33 35 35 36 36 36 37 40 41 37 38 38 36 33 29 26 24 24 25 24 24 23 22 22 21
Wind_Direction
319 317 312 311 305 302 302 300 301 304 303 313 274 255 275 289 305 295 263 262 185 190 183 179 175 174 176 178 172 180 184 182 169 143 169 180 182 186 186 192 195 200 203
318 317 315 312 305 302 297 297 302 304 303 303 301 262 252 266 302 300 301 249 223 193 183 181 179 176 178 176 174 183 183 183 170 147 160 168 183 189 187 189 193 199 200
318 314 314 312 308 304 301 298 297 296 295 296 298 299 261 273 285 303 292 253 223 186 184 179 178 178 179 178 182 184 182 182 170 162 154 173 175 184 181 187 190 188 190
317 314 311 310 305 300 296 298 294 291 286 290 285 288 287 267 278 286 283 284 270 186 186 182 183 184 178 179 182 178 175 168 171 162 154 166 170 176 177 170 170 181 180
317 314 310 308 305 301 298 293 292 287 274 283 282 278 273 280 272 275 292 295 271 198 193 185 187 189 186 185 184 179 173 162 161 157 157 159 161 165 170 172 165 175 176
313 313 310 308 306 301 298 292 294 295 277 275 276 274 269 264 265 262 265 280 251 213 189 191 187 189 189 190 193 188 183 167 162 160 168 165 174 181 178 168 161 157 167
312 312 310 308 305 303 298 294 289 290 290 272 271 270 266 258 257 258 262 269 253 229 191 188 185 188 189 187 192 192 191 196 200 179 172 179 178 181 179 173 174 176 183
313 314 314 312 306 303 297 291 287 282 280 277 267 265 266 264 251 250 260 267 259 251 186 188 184 181 183 181 182 183 192 195 195 187 196 192 192 186 186 186 182 170 171
318 320 316 314 308 303 297 291 286 282 277 275 264 264 256 252 245 250 257 262 253 232 184 186 185 182 184 179 177 179 187 189 195 199 208 208 204 201 192 176 173 167 153
324 321 317 314 307 299 293 288 284 278 274 271 264 262 252 259 254 256 251 254 247 205 179 183 186 185 186 183 179 178 179 185 184 187 191 197 203 199 194 195 183 179 172
321 321 318 314 306 300 296 286 276 272 271 271 261 259 257 245 251 256 247 247 222 193 179 181 186 187 188 183 184 183 190 184 188 188 190 192 190 190 192 195 196 185 184
325 323 321 319 319 315 311 304 286 261 266 268 251 257 258 256 257 250 253 249 206 190 184 185 186 187 190 188 186 190 185 189 182 181 180 182 182 182 190 197 206 202 204
326 327 327 326 326 325 323 319 319 260 260 263 254 249 254 252 248 254 250 237 201 186 182 181 180 188 188 186 189 190 180 179 180 182 191 193 191 192 196 200 203 202 204
327 331 333 332 331 333 332 332 330 333 300 256 251 244 251 248 260 243 235 215 195 188 182 180 181 185 185 186 184 183 182 185 185 189 190 193 192 185 189 191 192 196 200
333 336 339 335 336 333 336 335 333 335 332 347 296 260 250 258 256 230 210 197 181 184 168 167 172 174 176 179 180 179 182 185 186 189 186 184 185 187 188 187 193 191 200
337 342 341 336 339 338 337 338 344 349 351 3 9 7 344 278 281 230 215 192 184 172 161 170 173 180 178 176 176 181 181 187 188 186 182 183 182 183 185 186 192 195 201
340 343 344 342 344 344 345 348 344 345 360 8 10 11 12 1 278 223 215 189 178 166 168 175 174 179 181 176 176 182 182 192 186 190 185 184 187 187 188 190 194 198 204
345 351 352 347 346 348 350 351 354 356 354 350 3 13 14 25 39 49 212 182 165 173 172 174 170 183 175 172 175 182 184 184 188 189 189 189 190 188 189 196 197 200 205
353 356 355 354 353 355 357 359 4 5 3 359 3 13 11 20 41 45 46 45 41 37 17 138 174 178 176 174 177 181 181 184 188 189 194 194 193 191 195 199 201 202 200
357 359 360 0 359 3 4 7 9 9 10 11 12 18 12 26 34 30 33 34 38 36 27 33 39 51 110 185 177 179 181 183 187 191 195 197 196 196 199 199 198 200 201
359 1 3 7 8 7 6 7 11 15 15 16 18 23 29 33 33 34 33 30 30 33 33 36 38 40 40 43 155 175 181 186 191 196 198 199 198 203 205 206 201 205 201
6 6 6 11 5 10 13 11 12 15 18 17 16 21 28 33 31 31 33 30 28 34 38 41 43 44 38 36 43 67 135 173 190 195 198 195 193 195 196 198 195 194 196
15 9 9 11 12 11 14 17 16 16 17 18 20 22 23 24 23 25 28 27 29 33 37 42 42 40 46 44 52 55 57 60 87 177 177 173 176 180 177 177 175 176 178
23 15 10 10 10 13 13 13 14 19 21 19 20 21 22 22 22 23 25 26 33 39 45 46 45 45 41 48 48 53 59 64 81 108 152 154 145 151 155 157 163 171 175
26 22 16 11 10 9 7 9 14 16 19 19 19 19 19 22 22 23 27 29 36 42 47 51 49 48 47 46 53 56 59 68 76 85 94 104 108 116 120 122 128 132 137
27 27 25 20 15 14 11 9 7 10 15 13 18 17 17 22 24 26 29 36 39 43 48 51 54 53 48 48 50 53 58 62 70 80 87 94 97 96 103 106 110 104 113